Weather History for Naha City, Japan

Change the Weather History Date:

Sunday, September 16, 2012

  Actual Average Record
Temperature  
Mean Temperature 80 °F -  
Max Temperature 82 °F 83 °F 91 °F (2003)
Min Temperature 77 °F 74 °F 75 °F (2000)
Cooling Degree Days 14    
Growing Degree Days 30 (Base 50)    
Moisture  
Dew Point 75 °F    
Average Humidity 85    
Maximum Humidity 94    
Minimum Humidity 74    
Precipitation  
Precipitation 0.00 in - - ()
Sea Level Pressure  
Sea Level Pressure 29.19 in    
Wind  
Wind Speed 32 mph ()    
Max Wind Speed 53 mph    
Max Gust Speed 71 mph    
Visibility 3.6 miles    
Events Rain    
Averages and records for this station are not official NWS values.
T = Trace of Precipitation, MM = Missing Value Source: Averaged Metar Reports

Daily Weather History Graph

Daily Weather History Graph

Search for Another Location

Airport:

Trip Planner

Search our weather history database for the weather conditions in past years. The results will help you decide how hot, cold, wet, or windy it might be!

Date:

Astronomy

Sep. 16, 2012 Rise Set
Actual Time 6:15 AM JST 6:32 PM JST
Civil Twilight 5:52 AM JST 6:55 PM JST
Nautical Twilight 5:25 AM JST 7:22 PM JST
Astronomical Twilight 4:58 AM JST 7:49 PM JST
Moon 6:08 AM JST (9/16) 6:25 PM JST (9/16)
Length of Visible Light 13h 03m
Length of Day
12h 17m
New Moon, 0% of the Moon is Illuminated
Sep 16
New Moon
Sep 23
First Quarter
Sep 30
Full
Oct 8
Last Quarter
Oct 15
New

Hourly Weather History & Observations

Time (JST) Temp. Heat Index Dew Point Humidity Pressure Visibility Wind Dir Wind Speed Gust Speed Precip Events Conditions
12:00 AM 78.8 °F - 75.2 °F 89% 29.18 in 1.9 mi NE 34.5 mph 58.7 mph N/A Rain Rain Showers
12:15 AM 78.8 °F - 75.2 °F 89% 29.15 in 1.2 mi ENE 32.2 mph 51.8 mph N/A Rain Heavy Rain Showers
12:30 AM 78.8 °F - 75.2 °F 89% 29.12 in 1.9 mi NE 33.4 mph 47.2 mph N/A Rain Rain Showers
12:42 AM 78.8 °F - 75.2 °F 89% 29.12 in 1.2 mi NE 33.4 mph 57.5 mph N/A Rain Heavy Rain Showers
1:00 AM 78.8 °F - 75.2 °F 89% 29.09 in 1.9 mi NE 32.2 mph 50.6 mph N/A Rain Rain Showers
1:09 AM 78.8 °F - 75.2 °F 89% 29.06 in 0.9 mi NE 28.8 mph 44.9 mph N/A Rain Heavy Rain Showers
1:17 AM 78.8 °F - 75.2 °F 89% 29.06 in 0.9 mi NE 31.1 mph 52.9 mph N/A Rain Heavy Rain Showers
1:24 AM 78.8 °F - 75.2 °F 89% 29.03 in 1.9 mi NE 31.1 mph 52.9 mph N/A Rain Rain Showers
1:30 AM 78.8 °F - 75.2 °F 89% 29.03 in 1.9 mi NE 32.2 mph 52.9 mph N/A Rain Rain Showers
2:00 AM 78.8 °F - 75.2 °F 89% 28.97 in 1.2 mi NE 31.1 mph 48.3 mph N/A Rain Heavy Rain Showers
2:21 AM 78.8 °F - 77.0 °F 94% 28.94 in 1.9 mi NE 27.6 mph 40.3 mph N/A Rain Rain Showers
2:30 AM 78.8 °F - 77.0 °F 94% 28.91 in 1.9 mi NE 31.1 mph 49.5 mph N/A Rain Rain Showers
3:00 AM 78.8 °F - 77.0 °F 94% 28.85 in 1.2 mi NE 32.2 mph 56.4 mph N/A Rain Heavy Rain Showers
3:30 AM 78.8 °F - 77.0 °F 94% 28.80 in 1.6 mi NNE 34.5 mph 51.8 mph N/A Rain Rain Showers
4:00 AM 78.8 °F - 77.0 °F 94% 28.71 in 1.9 mi NNE 43.7 mph 57.5 mph N/A Rain Rain Showers
4:30 AM 78.8 °F - 77.0 °F 94% 28.65 in 1.2 mi North 46.0 mph 64.4 mph N/A Rain Heavy Rain Showers
5:00 AM 78.8 °F - 77.0 °F 94% 28.62 in 1.2 mi NNW 52.9 mph 69.0 mph N/A Rain Heavy Rain Showers
5:30 AM 80.6 °F 87.1 °F 77.0 °F 89% 28.59 in 1.9 mi NNW 52.9 mph 71.3 mph N/A Rain Rain Showers
6:00 AM 80.6 °F 87.1 °F 77.0 °F 89% 28.59 in 1.9 mi NW 44.9 mph 58.7 mph N/A Rain Rain Showers
6:30 AM 80.6 °F 87.1 °F 77.0 °F 89% 28.62 in 1.9 mi NW 49.5 mph 65.6 mph N/A Rain Rain Showers
7:00 AM 80.6 °F 88.1 °F 78.8 °F 94% 28.68 in 1.9 mi WNW 48.3 mph 63.3 mph N/A Rain Rain Showers
7:30 AM 80.6 °F 87.1 °F 77.0 °F 89% 28.71 in 1.2 mi WNW 50.6 mph 65.6 mph N/A Rain Light Rain Showers
7:47 AM 80.6 °F 88.1 °F 78.8 °F 94% 28.74 in 0.9 mi West 51.8 mph 67.9 mph N/A Rain Rain Showers
8:00 AM 80.6 °F 87.1 °F 77.0 °F 89% 28.80 in 0.6 mi West 52.9 mph 67.9 mph N/A Rain Rain Showers
8:30 AM 78.8 °F - 77.0 °F 94% 28.82 in 0.5 mi West 51.8 mph 71.3 mph N/A Rain Heavy Rain Showers
9:00 AM 80.6 °F 88.1 °F 78.8 °F 94% 28.91 in 0.9 mi WNW 50.6 mph 62.1 mph N/A Rain Rain Showers
9:30 AM 78.8 °F - 77.0 °F 94% 28.97 in 0.9 mi West 47.2 mph 67.9 mph N/A Rain Rain Showers
9:48 AM 80.6 °F 87.1 °F 77.0 °F 89% 29.00 in 0.9 mi West 47.2 mph 65.6 mph N/A Rain Rain Showers
10:00 AM 80.6 °F 87.1 °F 77.0 °F 89% 29.06 in 0.9 mi West 39.1 mph 54.1 mph N/A Rain Rain Showers
10:16 AM 80.6 °F 87.1 °F 77.0 °F 89% 29.09 in 1.6 mi West 41.4 mph 57.5 mph N/A Rain Light Rain Showers
10:30 AM 80.6 °F 87.1 °F 77.0 °F 89% 29.12 in 2.8 mi West 42.6 mph 57.5 mph N/A Rain Light Rain Showers
10:40 AM 80.6 °F 87.1 °F 77.0 °F 89% 29.15 in 3.7 mi West 40.3 mph 52.9 mph N/A Rain Light Rain Showers
11:00 AM 80.6 °F 87.1 °F 77.0 °F 89% 29.18 in 3.7 mi West 38.0 mph 50.6 mph N/A Rain Light Rain Showers
11:30 AM 80.6 °F 87.1 °F 77.0 °F 89% 29.21 in 4.3 mi West 36.8 mph 48.3 mph N/A   Mostly Cloudy
12:00 PM 80.6 °F 87.1 °F 77.0 °F 89% 29.24 in 4.3 mi West 34.5 mph 46.0 mph N/A   Mostly Cloudy
12:30 PM 82.4 °F 89.5 °F 75.2 °F 79% 29.27 in 4.3 mi WSW 34.5 mph 46.0 mph N/A   Mostly Cloudy
1:00 PM 82.4 °F 89.5 °F 75.2 °F 79% 29.30 in 4.3 mi WSW 33.4 mph - N/A Rain Light Rain Showers
1:30 PM 82.4 °F 88.2 °F 73.4 °F 74% 29.30 in 6.2 mi WSW 34.5 mph - N/A   Scattered Clouds
1:36 PM 82.4 °F 89.5 °F 75.2 °F 79% 29.30 in 6.2 mi West 33.4 mph 44.9 mph N/A   Scattered Clouds
2:00 PM 82.4 °F 89.5 °F 75.2 °F 79% 29.33 in 6.2 mi West 32.2 mph - N/A   Scattered Clouds
2:11 PM 82.4 °F 89.5 °F 75.2 °F 79% 29.33 in 6.2 mi WSW 31.1 mph 42.6 mph N/A   Scattered Clouds
2:30 PM 82.4 °F 89.5 °F 75.2 °F 79% 29.36 in 6.2 mi WSW 28.8 mph - N/A   Scattered Clouds
3:00 PM 82.4 °F 88.2 °F 73.4 °F 74% 29.39 in 6.2 mi West 28.8 mph - N/A   Scattered Clouds
3:11 PM 82.4 °F 88.2 °F 73.4 °F 74% 29.39 in 6.2 mi West 28.8 mph 41.4 mph N/A   Scattered Clouds
3:30 PM 82.4 °F 89.5 °F 75.2 °F 79% 29.39 in 6.2 mi WSW 25.3 mph - N/A   Partly Cloudy
4:00 PM 82.4 °F 88.2 °F 73.4 °F 74% 29.42 in 6.2 mi West 25.3 mph - N/A Rain Light Rain Showers
4:19 PM 80.6 °F 87.1 °F 77.0 °F 89% 29.42 in 6.2 mi West 25.3 mph 36.8 mph N/A   Scattered Clouds
4:30 PM 82.4 °F 89.5 °F 75.2 °F 79% 29.44 in 6.2 mi West 24.2 mph - N/A   Partly Cloudy
5:00 PM 82.4 °F 89.5 °F 75.2 °F 79% 29.44 in 6.2 mi West 25.3 mph - N/A   Scattered Clouds
5:30 PM 82.4 °F 89.5 °F 75.2 °F 79% 29.47 in 6.2 mi WSW 21.9 mph - N/A   Scattered Clouds
6:00 PM 82.4 °F 88.2 °F 73.4 °F 74% 29.50 in 6.2 mi West 23.0 mph - N/A   Scattered Clouds
6:30 PM 82.4 °F 88.2 °F 73.4 °F 74% 29.53 in 5.6 mi West 17.3 mph - N/A Rain Light Rain Showers
6:48 PM 78.8 °F - 73.4 °F 83% 29.53 in 3.1 mi West 19.6 mph - N/A Rain Rain Showers
7:00 PM 77.0 °F - 73.4 °F 89% 29.53 in 3.7 mi West 21.9 mph - N/A Rain Heavy Rain Showers
7:14 PM 78.8 °F - 73.4 °F 83% 29.56 in 5.0 mi West 18.4 mph - N/A Rain Light Rain Showers
7:30 PM 78.8 °F - 73.4 °F 83% 29.56 in 5.0 mi West 19.6 mph - N/A   Scattered Clouds
8:00 PM 80.6 °F 85.4 °F 73.4 °F 79% 29.56 in 5.6 mi WNW 21.9 mph - N/A   Scattered Clouds
8:21 PM 80.6 °F 85.4 °F 73.4 °F 79% 29.59 in 5.6 mi WNW 23.0 mph 34.5 mph N/A   Partly Cloudy
8:30 PM 80.6 °F 84.6 °F 71.6 °F 74% 29.59 in 5.6 mi West 25.3 mph - N/A   Partly Cloudy
9:00 PM 80.6 °F 84.6 °F 71.6 °F 74% 29.62 in 6.2 mi West 21.9 mph - N/A   Partly Cloudy
9:30 PM 80.6 °F 84.6 °F 71.6 °F 74% 29.62 in 6.2 mi WNW 25.3 mph - N/A   Partly Cloudy
10:00 PM 80.6 °F 84.6 °F 71.6 °F 74% 29.62 in 6.2 mi WNW 21.9 mph - N/A   Partly Cloudy
10:30 PM 80.6 °F 85.4 °F 73.4 °F 79% 29.65 in 6.2 mi West 19.6 mph - N/A Rain Light Rain Showers
11:00 PM 80.6 °F 84.6 °F 71.6 °F 74% 29.65 in 6.2 mi WNW 19.6 mph - N/A Rain Light Rain Showers
11:30 PM 80.6 °F 84.6 °F 71.6 °F 74% 29.68 in 6.2 mi WNW 17.3 mph - N/A   Partly Cloudy